Date String (YYYY-MM-DD hh:mm:ss) UTC,Instrument flags,Ambient pressure (hPa),Sample flow (lpm),Bypass flow (lpm),Sample temperature (°C),Ambient temperature (°C),ASC tube jacket temperature (°C),LED temperature (°C),Box temperature (°C),Sample RH (%),Mass concentration (μg/m³),Mass concentration (μg/m³)
DateTimeUTC,F1_M11,P_M11,Q1_M11,Q2_M11,T1_M11,T2_M11,T3_M11,T4_M11,T5_M11,U1_M11,X0_M11,X2_M11
2021-08-19 05:00:00,,0823.7,4.99,0.00,29.2,25.4,00.0,38.4,30.5,23.7,0023.23,0016.16
2021-08-19 05:01:00,,0823.7,5.01,0.00,29.1,25.8,00.0,38.3,30.6,23.8,0023.62,0016.20
2021-08-19 05:02:00,,0823.7,5.00,0.00,29.1,26.3,00.0,38.3,30.7,23.9,0023.75,0016.20
2021-08-19 05:03:00,,0823.7,5.01,0.00,29.1,26.7,00.0,38.3,30.8,24.0,0023.55,0016.19
2021-08-19 05:04:00,,0823.7,4.99,0.00,29.1,27.1,00.0,38.3,30.9,23.9,0023.75,0016.23
2021-08-19 05:05:00,,0823.7,5.00,0.00,29.1,27.4,00.0,38.3,30.9,24.0,0023.85,0016.29
2021-08-19 05:06:00,,0823.7,5.00,0.00,29.2,27.7,00.0,38.3,31.0,24.0,0023.76,0016.31
2021-08-19 05:07:00,,0823.7,4.99,0.00,29.2,27.9,00.0,38.3,31.1,23.9,0023.98,0016.39
2021-08-19 05:08:00,,0823.7,5.00,0.00,29.3,28.1,00.0,38.3,31.1,23.9,0024.03,0016.39
2021-08-19 05:09:00,,0823.7,5.00,0.00,29.3,28.3,00.0,38.3,31.2,23.8,0023.79,0016.43
2021-08-19 05:10:00,,0823.7,5.00,0.00,29.4,28.4,00.0,38.3,31.2,23.8,0023.61,0016.51
2021-08-19 05:11:00,,0823.7,5.00,0.00,29.4,28.5,00.0,38.4,31.3,23.7,0023.35,0016.43
2021-08-19 05:12:00,,0823.7,5.00,0.00,29.5,28.6,00.0,38.4,31.4,23.6,0022.79,0016.37
2021-08-19 05:13:00,,0823.7,4.98,0.00,29.5,28.7,00.0,38.4,31.4,23.5,0023.14,0016.35
2021-08-19 05:14:00,,0823.7,5.00,0.00,29.6,28.6,00.0,38.4,31.4,23.4,0023.41,0016.36
2021-08-19 05:15:00,,0823.6,5.01,0.00,29.5,27.1,00.0,38.4,31.0,23.5,0023.34,0016.34
2021-08-19 05:16:00,,0823.6,4.99,0.00,29.4,26.4,00.0,38.4,30.8,23.7,0023.16,0016.30
2021-08-19 05:17:00,,0823.6,4.99,0.00,29.3,26.7,00.0,38.4,30.8,23.8,0023.30,0016.37
2021-08-19 05:18:00,,0823.6,5.00,0.00,29.3,27.0,00.0,38.4,30.9,23.9,0023.03,0016.34
2021-08-19 05:19:00,,0823.6,5.01,0.00,29.3,27.4,00.0,38.4,31.0,24.0,0023.05,0016.35
2021-08-19 05:20:00,,0823.5,4.99,0.00,29.3,27.7,00.0,38.4,31.1,24.0,0023.73,0016.33
2021-08-19 05:21:00,,0823.6,5.01,0.00,29.3,27.9,00.0,38.4,31.2,24.0,0024.45,0016.29
2021-08-19 05:22:00,,0823.6,5.00,0.00,29.4,28.1,00.0,38.4,31.3,24.0,0024.48,0016.32
2021-08-19 05:23:00,,0823.6,4.99,0.00,29.4,28.3,00.0,38.4,31.3,23.9,0025.35,0016.42
2021-08-19 05:24:00,,0823.6,5.01,0.00,29.5,28.5,00.0,38.4,31.4,23.9,0025.38,0016.45
2021-08-19 05:25:00,,0823.6,5.00,0.00,29.5,28.6,00.0,38.5,31.4,24.0,0025.60,0016.51
2021-08-19 05:26:00,,0823.7,4.99,0.00,29.6,28.7,00.0,38.5,31.5,23.9,0025.62,0016.55
2021-08-19 05:27:00,,0823.7,5.00,0.00,29.5,27.4,00.0,38.5,31.1,24.0,0026.15,0016.62
2021-08-19 05:28:00,,0823.6,4.99,0.00,29.4,25.7,00.0,38.5,30.7,24.4,0026.67,0016.64
2021-08-19 05:29:00,,0823.6,4.99,0.00,29.2,25.5,00.0,38.4,30.6,24.8,0026.83,0016.68
2021-08-19 05:30:00,,0823.6,5.01,0.00,29.2,25.9,00.0,38.4,30.7,25.0,0027.30,0016.73
2021-08-19 05:31:00,,0823.6,5.01,0.00,29.1,26.4,00.0,38.4,30.7,25.2,0026.74,0016.74
2021-08-19 05:32:00,,0823.6,4.99,0.00,29.1,26.8,00.0,38.3,30.8,25.3,0025.93,0016.79
2021-08-19 05:33:00,,0823.6,5.00,0.00,29.1,27.2,00.0,38.3,30.9,25.3,0026.27,0016.87
2021-08-19 05:34:00,,0823.6,5.00,0.00,29.2,27.5,00.0,38.3,31.0,25.2,0025.77,0016.89
2021-08-19 05:35:00,,0823.6,5.01,0.00,29.2,27.8,00.0,38.3,31.1,25.2,0025.52,0016.94
2021-08-19 05:36:00,,0823.6,5.00,0.00,29.3,28.0,00.0,38.3,31.2,25.3,0025.01,0016.96
2021-08-19 05:37:00,,0823.7,4.99,0.00,29.3,28.2,00.0,38.3,31.2,25.2,0025.57,0017.04
2021-08-19 05:38:00,,0823.7,5.00,0.00,29.4,28.3,00.0,38.4,31.3,25.2,0025.28,0017.05
2021-08-19 05:39:00,,0823.7,5.00,0.00,29.4,28.5,00.0,38.4,31.3,25.2,0025.33,0017.07
2021-08-19 05:40:00,,0823.7,5.01,0.00,29.5,28.6,00.0,38.4,31.4,25.3,0026.48,0017.10
2021-08-19 05:41:00,,0823.7,4.99,0.00,29.5,28.7,00.0,38.4,31.4,25.3,0026.70,0017.12
2021-08-19 05:42:00,,0823.7,5.01,0.00,29.6,28.8,00.0,38.5,31.5,25.4,0026.82,0017.22
2021-08-19 05:43:00,,0823.7,4.99,0.00,29.6,28.8,00.0,38.5,31.5,25.4,0026.95,0017.24
2021-08-19 05:44:00,,0823.7,5.00,0.00,29.6,27.6,00.0,38.5,31.2,25.5,0027.19,0017.29
2021-08-19 05:45:00,,0823.7,5.00,0.00,29.4,25.8,00.0,38.5,30.7,25.8,0027.67,0017.35
2021-08-19 05:46:00,,0823.6,5.02,0.00,29.3,25.5,00.0,38.4,30.5,26.1,0027.87,0017.49
2021-08-19 05:47:00,,0823.6,5.00,0.00,29.2,25.9,00.0,38.4,30.6,26.2,0029.05,0017.58
2021-08-19 05:48:00,,0823.6,5.02,0.00,29.1,26.3,00.0,38.4,30.7,26.2,0029.72,0017.63
2021-08-19 05:49:00,,0823.6,5.00,0.00,29.1,26.8,00.0,38.3,30.8,26.4,0030.00,0017.68
2021-08-19 05:50:00,,0823.6,4.99,0.00,29.2,27.2,00.0,38.3,30.9,26.5,0031.10,0017.73
2021-08-19 05:51:00,,0823.6,5.01,0.00,29.2,27.5,00.0,38.3,31.0,26.3,0030.61,0017.80
2021-08-19 05:52:00,,0823.6,4.99,0.00,29.2,27.8,00.0,38.3,31.1,26.2,0030.06,0017.87
2021-08-19 05:53:00,,0823.5,5.00,0.00,29.3,28.0,00.0,38.3,31.1,26.1,0030.68,0017.90
2021-08-19 05:54:00,,0823.5,5.00,0.00,29.3,28.2,00.0,38.3,31.2,26.1,0031.27,0017.93
2021-08-19 05:55:00,,0823.5,4.98,0.00,29.4,28.3,00.0,38.4,31.3,26.1,0032.08,0017.95
2021-08-19 05:56:00,,0823.4,5.02,0.00,29.4,28.5,00.0,38.4,31.3,26.0,0031.96,0017.92
2021-08-19 05:57:00,,0823.4,5.00,0.00,29.5,28.6,00.0,38.4,31.4,25.8,0032.77,0017.84
2021-08-19 05:58:00,,0823.4,5.00,0.00,29.5,28.7,00.0,38.4,31.4,25.7,0033.55,0017.80
2021-08-19 05:59:00,,0823.4,5.01,0.00,29.6,28.8,00.0,38.5,31.5,25.8,0033.34,0017.74
